Year,Month,Day,Hour,Minute,Value (Times are PST for temperature in C)
2017,06,27,00,00,15.00
2017,06,27,00,01,15.00
2017,06,27,00,02,15.00
2017,06,27,00,03,15.00
2017,06,27,00,04,15.00
2017,06,27,00,05,15.00
2017,06,27,00,06,14.90
2017,06,27,00,07,14.90
2017,06,27,00,08,14.90
2017,06,27,00,09,14.80
2017,06,27,00,10,14.80
2017,06,27,00,11,14.80
2017,06,27,00,12,14.80
2017,06,27,00,13,14.80
2017,06,27,00,14,14.80
2017,06,27,00,15,14.80
2017,06,27,00,16,14.80
2017,06,27,00,17,14.70
2017,06,27,00,18,14.70
2017,06,27,00,19,14.70
2017,06,27,00,20,14.60
2017,06,27,00,21,14.60
2017,06,27,00,22,14.50
2017,06,27,00,23,14.50
2017,06,27,00,24,14.40
2017,06,27,00,25,14.40
2017,06,27,00,26,14.30
2017,06,27,00,27,14.30
2017,06,27,00,28,14.20
2017,06,27,00,29,14.20
2017,06,27,00,30,14.20
2017,06,27,00,31,14.10
2017,06,27,00,32,14.10
2017,06,27,00,33,14.00
2017,06,27,00,34,14.00
2017,06,27,00,35,13.90
2017,06,27,00,36,13.90
2017,06,27,00,37,13.90
2017,06,27,00,38,13.80
2017,06,27,00,39,13.80
2017,06,27,00,40,13.80
2017,06,27,00,41,13.80
2017,06,27,00,42,13.80
2017,06,27,00,43,13.80
2017,06,27,00,44,13.70
2017,06,27,00,45,13.70
2017,06,27,00,46,13.70
2017,06,27,00,47,13.70
2017,06,27,00,48,13.70
2017,06,27,00,49,13.60
2017,06,27,00,50,13.60
2017,06,27,00,51,13.60
2017,06,27,00,52,13.60
2017,06,27,00,53,13.50
2017,06,27,00,54,13.50
2017,06,27,00,55,13.60
2017,06,27,00,56,13.60
2017,06,27,00,57,13.60
2017,06,27,00,58,13.60
2017,06,27,00,59,13.60
2017,06,27,01,00,13.70
2017,06,27,01,01,13.70
2017,06,27,01,02,13.70
2017,06,27,01,03,13.70
2017,06,27,01,04,13.70
2017,06,27,01,05,13.70
2017,06,27,01,06,13.70
2017,06,27,01,07,13.70
2017,06,27,01,08,13.70
2017,06,27,01,09,13.70
2017,06,27,01,10,13.70
2017,06,27,01,11,13.70
2017,06,27,01,12,13.70
2017,06,27,01,13,13.70
2017,06,27,01,14,13.60
2017,06,27,01,15,13.60
2017,06,27,01,16,13.60
2017,06,27,01,17,13.60
2017,06,27,01,18,13.50
2017,06,27,01,19,13.50
2017,06,27,01,20,13.50
2017,06,27,01,21,13.40
2017,06,27,01,22,13.40
2017,06,27,01,23,13.40
2017,06,27,01,24,13.30
2017,06,27,01,25,13.30
2017,06,27,01,26,13.30
2017,06,27,01,27,13.30
2017,06,27,01,28,13.30
2017,06,27,01,29,13.30
2017,06,27,01,30,13.30
2017,06,27,01,31,13.30
2017,06,27,01,32,13.30
2017,06,27,01,33,13.30
2017,06,27,01,34,13.20
2017,06,27,01,35,13.20
2017,06,27,01,36,13.20
2017,06,27,01,37,13.20
2017,06,27,01,38,13.20
2017,06,27,01,39,13.20
2017,06,27,01,40,13.20
2017,06,27,01,41,13.10
2017,06,27,01,42,13.10
2017,06,27,01,43,13.10
2017,06,27,01,44,13.00
2017,06,27,01,45,13.00
2017,06,27,01,46,12.90
2017,06,27,01,47,12.90
2017,06,27,01,48,12.90
2017,06,27,01,49,12.80
2017,06,27,01,50,12.80
2017,06,27,01,51,12.80
2017,06,27,01,52,12.80
2017,06,27,01,53,12.80
2017,06,27,01,54,12.80
2017,06,27,01,55,12.70
2017,06,27,01,56,12.70
2017,06,27,01,57,12.70
2017,06,27,01,58,12.70
2017,06,27,01,59,12.70
2017,06,27,02,00,12.70
2017,06,27,02,01,12.70
2017,06,27,02,02,12.70
2017,06,27,02,03,12.60
2017,06,27,02,04,12.60
2017,06,27,02,05,12.60
2017,06,27,02,06,12.60
2017,06,27,02,07,12.50
2017,06,27,02,08,12.50
2017,06,27,02,09,12.40
2017,06,27,02,10,12.40
2017,06,27,02,11,12.40
2017,06,27,02,12,12.40
2017,06,27,02,13,12.40
2017,06,27,02,14,12.30
2017,06,27,02,15,12.30
2017,06,27,02,16,12.30
2017,06,27,02,17,12.30
2017,06,27,02,18,12.30
2017,06,27,02,19,12.30
2017,06,27,02,20,12.20
2017,06,27,02,21,12.20
2017,06,27,02,22,12.20
2017,06,27,02,23,12.20
2017,06,27,02,24,12.10
2017,06,27,02,25,12.10
2017,06,27,02,26,12.10
2017,06,27,02,27,12.10
2017,06,27,02,28,12.00
2017,06,27,02,29,12.00
2017,06,27,02,30,11.90
2017,06,27,02,31,11.90
2017,06,27,02,32,11.90
2017,06,27,02,33,11.90
2017,06,27,02,34,11.90
2017,06,27,02,35,11.80
2017,06,27,02,36,11.80
2017,06,27,02,37,11.80
2017,06,27,02,38,11.80
2017,06,27,02,39,11.80
2017,06,27,02,40,11.70
2017,06,27,02,41,11.70
2017,06,27,02,42,11.70
2017,06,27,02,43,11.70
2017,06,27,02,44,11.70
2017,06,27,02,45,11.70
2017,06,27,02,46,11.70
2017,06,27,02,47,11.70
2017,06,27,02,48,11.60
2017,06,27,02,49,11.60
2017,06,27,02,50,11.60
2017,06,27,02,51,11.60
2017,06,27,02,52,11.60
2017,06,27,02,53,11.60
2017,06,27,02,54,11.60
2017,06,27,02,55,11.60
2017,06,27,02,56,11.60
2017,06,27,02,57,11.60
2017,06,27,02,58,11.60
2017,06,27,02,59,11.60
2017,06,27,03,00,11.60
2017,06,27,03,01,11.60
2017,06,27,03,02,11.60
2017,06,27,03,03,11.60
2017,06,27,03,04,11.60
2017,06,27,03,05,11.50
2017,06,27,03,06,11.50
2017,06,27,03,07,11.50
2017,06,27,03,08,11.50
2017,06,27,03,09,11.50
2017,06,27,03,10,11.50
2017,06,27,03,11,11.50
2017,06,27,03,12,11.50
2017,06,27,03,13,11.40
2017,06,27,03,14,11.40
2017,06,27,03,15,11.40
2017,06,27,03,16,11.40
2017,06,27,03,17,11.40
2017,06,27,03,18,11.40
2017,06,27,03,19,11.30
2017,06,27,03,20,11.30
2017,06,27,03,21,11.30
2017,06,27,03,22,11.30
2017,06,27,03,23,11.30
2017,06,27,03,24,11.30
2017,06,27,03,25,11.30
2017,06,27,03,26,11.30
2017,06,27,03,27,11.30
2017,06,27,03,28,11.30
2017,06,27,03,29,11.20
2017,06,27,03,30,11.20
2017,06,27,03,31,11.20
2017,06,27,03,32,11.20
2017,06,27,03,33,11.20
2017,06,27,03,34,11.20
2017,06,27,03,35,11.20
2017,06,27,03,36,11.20
2017,06,27,03,37,11.20
2017,06,27,03,38,11.20
2017,06,27,03,39,11.20
2017,06,27,03,40,11.10
2017,06,27,03,41,11.10
2017,06,27,03,42,11.10
2017,06,27,03,43,11.10
2017,06,27,03,44,11.10
2017,06,27,03,45,11.10
2017,06,27,03,46,11.10
2017,06,27,03,47,11.00
2017,06,27,03,48,11.00
2017,06,27,03,49,11.00
2017,06,27,03,50,11.00
2017,06,27,03,51,11.00
2017,06,27,03,52,10.90
2017,06,27,03,53,10.90
2017,06,27,03,54,10.90
2017,06,27,03,55,10.90
2017,06,27,03,56,10.90
2017,06,27,03,57,10.90
2017,06,27,03,58,10.90
2017,06,27,03,59,10.90
2017,06,27,04,00,10.90
2017,06,27,04,01,10.90
2017,06,27,04,02,10.90
2017,06,27,04,03,10.90
2017,06,27,04,04,10.90
2017,06,27,04,05,10.90
2017,06,27,04,06,10.90
2017,06,27,04,07,10.90
2017,06,27,04,08,10.90
2017,06,27,04,09,10.90
2017,06,27,04,10,10.90
2017,06,27,04,11,10.90
2017,06,27,04,12,10.90
2017,06,27,04,13,10.90
2017,06,27,04,14,10.90
2017,06,27,04,15,10.90
2017,06,27,04,16,10.90
2017,06,27,04,17,10.90
2017,06,27,04,18,10.90
2017,06,27,04,19,10.90
2017,06,27,04,20,10.90
2017,06,27,04,21,10.90
2017,06,27,04,22,10.90
2017,06,27,04,23,10.80
2017,06,27,04,24,10.80
2017,06,27,04,25,10.80
2017,06,27,04,26,10.80
2017,06,27,04,27,10.80
2017,06,27,04,28,10.80
2017,06,27,04,29,10.80
2017,06,27,04,30,10.80
2017,06,27,04,31,10.80
2017,06,27,04,32,10.80
2017,06,27,04,33,10.70
2017,06,27,04,34,10.70
2017,06,27,04,35,10.70
2017,06,27,04,36,10.70
2017,06,27,04,37,10.70
2017,06,27,04,38,10.70
2017,06,27,04,39,10.70
2017,06,27,04,40,10.70
2017,06,27,04,41,10.70
2017,06,27,04,42,10.70
2017,06,27,04,43,10.70
2017,06,27,04,44,10.70
2017,06,27,04,45,10.70
2017,06,27,04,46,10.70
2017,06,27,04,47,10.70
2017,06,27,04,48,10.70
2017,06,27,04,49,10.70
2017,06,27,04,50,10.70
2017,06,27,04,51,10.70
2017,06,27,04,52,10.60
2017,06,27,04,53,10.60
2017,06,27,04,54,10.60
2017,06,27,04,55,10.60
2017,06,27,04,56,10.60
2017,06,27,04,57,10.60
2017,06,27,04,58,10.60
2017,06,27,04,59,10.60
2017,06,27,05,00,10.60
2017,06,27,05,01,10.60
2017,06,27,05,02,10.60
2017,06,27,05,03,10.60
2017,06,27,05,04,10.60
2017,06,27,05,05,10.60
2017,06,27,05,06,10.60
2017,06,27,05,07,10.60
2017,06,27,05,08,10.60
2017,06,27,05,09,10.60
2017,06,27,05,10,10.60
2017,06,27,05,11,10.60
2017,06,27,05,12,10.50
2017,06,27,05,13,10.50
2017,06,27,05,14,10.50
2017,06,27,05,15,10.50
2017,06,27,05,16,10.50
2017,06,27,05,17,10.50
2017,06,27,05,18,10.50
2017,06,27,05,19,10.50
2017,06,27,05,20,10.50
2017,06,27,05,21,10.50
2017,06,27,05,22,10.50
2017,06,27,05,23,10.50
2017,06,27,05,24,10.50
2017,06,27,05,25,10.50
2017,06,27,05,26,10.50
2017,06,27,05,27,10.50
2017,06,27,05,28,10.50
2017,06,27,05,29,10.50
2017,06,27,05,30,10.50
2017,06,27,05,31,10.50
2017,06,27,05,32,10.50
2017,06,27,05,33,10.50
2017,06,27,05,34,10.50
2017,06,27,05,35,10.50
2017,06,27,05,36,10.50
2017,06,27,05,37,10.50
2017,06,27,05,38,10.50
2017,06,27,05,39,10.50
2017,06,27,05,40,10.50
2017,06,27,05,41,10.50
2017,06,27,05,42,10.50
2017,06,27,05,43,10.50
2017,06,27,05,44,10.50
2017,06,27,05,45,10.50
2017,06,27,05,46,10.50
2017,06,27,05,47,10.50
2017,06,27,05,48,10.50
2017,06,27,05,49,10.50
2017,06,27,05,50,10.50
2017,06,27,05,51,10.50
2017,06,27,05,52,10.50
2017,06,27,05,53,10.50
2017,06,27,05,54,10.50
2017,06,27,05,55,10.50
2017,06,27,05,56,10.50
2017,06,27,05,57,10.50
2017,06,27,05,58,10.50
2017,06,27,05,59,10.50
2017,06,27,06,00,10.50
2017,06,27,06,01,10.50
2017,06,27,06,02,10.50
2017,06,27,06,03,10.50
2017,06,27,06,04,10.50
2017,06,27,06,05,10.50
2017,06,27,06,06,10.40
2017,06,27,06,07,10.40
2017,06,27,06,08,10.40
2017,06,27,06,09,10.40
2017,06,27,06,10,10.40
2017,06,27,06,11,10.40
2017,06,27,06,12,10.40
2017,06,27,06,13,10.40
2017,06,27,06,14,10.40
2017,06,27,06,15,10.40
2017,06,27,06,16,10.40
2017,06,27,06,17,10.40
2017,06,27,06,18,10.40
2017,06,27,06,19,10.40
2017,06,27,06,20,10.40
2017,06,27,06,21,10.40
2017,06,27,06,22,10.40
2017,06,27,06,23,10.40
2017,06,27,06,24,10.40
2017,06,27,06,25,10.40
2017,06,27,06,26,10.40
2017,06,27,06,27,10.40
2017,06,27,06,28,10.40
2017,06,27,06,29,10.40
2017,06,27,06,30,10.40
2017,06,27,06,31,10.40
2017,06,27,06,32,10.40
2017,06,27,06,33,10.40
2017,06,27,06,34,10.40
2017,06,27,06,35,10.40
2017,06,27,06,36,10.40
2017,06,27,06,37,10.40
2017,06,27,06,38,10.40
2017,06,27,06,39,10.40
2017,06,27,06,40,10.40
2017,06,27,06,41,10.40
2017,06,27,06,42,10.40
2017,06,27,06,43,10.40
2017,06,27,06,44,10.40
2017,06,27,06,45,10.50
2017,06,27,06,46,10.50
2017,06,27,06,47,10.50
2017,06,27,06,48,10.50
2017,06,27,06,49,10.50
2017,06,27,06,50,10.50
2017,06,27,06,51,10.60
2017,06,27,06,52,10.60
2017,06,27,06,53,10.60
2017,06,27,06,54,10.60
2017,06,27,06,55,10.60
2017,06,27,06,56,10.60
2017,06,27,06,57,10.60
2017,06,27,06,58,10.70
2017,06,27,06,59,10.70
2017,06,27,07,00,10.70
2017,06,27,07,01,10.70
2017,06,27,07,02,10.70
2017,06,27,07,03,10.70
2017,06,27,07,04,10.70
2017,06,27,07,05,10.70
2017,06,27,07,06,10.80
2017,06,27,07,07,10.80
2017,06,27,07,08,10.80
2017,06,27,07,09,10.80
2017,06,27,07,10,10.80
2017,06,27,07,11,10.80
2017,06,27,07,12,10.80
2017,06,27,07,13,10.80
2017,06,27,07,14,10.80
2017,06,27,07,15,10.80
2017,06,27,07,16,10.80
2017,06,27,07,17,10.90
2017,06,27,07,18,10.90
2017,06,27,07,19,10.90
2017,06,27,07,20,10.90
2017,06,27,07,21,11.00
2017,06,27,07,22,11.00
2017,06,27,07,23,11.00
2017,06,27,07,24,11.10
2017,06,27,07,25,11.10
2017,06,27,07,26,11.10
2017,06,27,07,27,11.10
2017,06,27,07,28,11.10
2017,06,27,07,29,11.10
2017,06,27,07,30,11.10
2017,06,27,07,31,11.10
2017,06,27,07,32,11.10
2017,06,27,07,33,11.20
2017,06,27,07,34,11.20
2017,06,27,07,35,11.20
2017,06,27,07,36,11.20
2017,06,27,07,37,11.30
2017,06,27,07,38,11.30
2017,06,27,07,39,11.30
2017,06,27,07,40,11.30
2017,06,27,07,41,11.40
2017,06,27,07,42,11.40
2017,06,27,07,43,11.40
2017,06,27,07,44,11.40
2017,06,27,07,45,11.50
2017,06,27,07,46,11.50
2017,06,27,07,47,11.50
2017,06,27,07,48,11.60
2017,06,27,07,49,11.60
2017,06,27,07,50,11.60
2017,06,27,07,51,11.60
2017,06,27,07,52,11.60
2017,06,27,07,53,11.70
2017,06,27,07,54,11.70
2017,06,27,07,55,11.70
2017,06,27,07,56,11.80
2017,06,27,07,57,11.80
2017,06,27,07,58,11.80
2017,06,27,07,59,11.90
2017,06,27,08,00,11.90
2017,06,27,08,01,11.90
2017,06,27,08,02,11.90
2017,06,27,08,03,12.00
2017,06,27,08,04,12.00
2017,06,27,08,05,12.00
2017,06,27,08,06,12.10
2017,06,27,08,07,12.10
2017,06,27,08,08,12.10
2017,06,27,08,09,12.10
2017,06,27,08,10,12.20
2017,06,27,08,11,12.20
2017,06,27,08,12,12.20
2017,06,27,08,13,12.20
2017,06,27,08,14,12.30
2017,06,27,08,15,12.30
2017,06,27,08,16,12.30
2017,06,27,08,17,12.30
2017,06,27,08,18,12.40
2017,06,27,08,19,12.40
2017,06,27,08,20,12.40
2017,06,27,08,21,12.50
2017,06,27,08,22,12.50
2017,06,27,08,23,12.50
2017,06,27,08,24,12.60
2017,06,27,08,25,12.60
2017,06,27,08,26,12.60
2017,06,27,08,27,12.70
2017,06,27,08,28,12.70
2017,06,27,08,29,12.70
2017,06,27,08,30,12.80
2017,06,27,08,31,12.80
2017,06,27,08,32,12.80
2017,06,27,08,33,12.90
2017,06,27,08,34,12.90
2017,06,27,08,35,12.90
2017,06,27,08,36,13.00
2017,06,27,08,37,13.00
2017,06,27,08,38,13.10
2017,06,27,08,39,13.10
2017,06,27,08,40,13.20
2017,06,27,08,41,13.20
2017,06,27,08,42,13.20
2017,06,27,08,43,13.30
2017,06,27,08,44,13.30
2017,06,27,08,45,13.30
2017,06,27,08,46,13.40
2017,06,27,08,47,13.50
2017,06,27,08,48,13.50
2017,06,27,08,49,13.60
2017,06,27,08,50,13.60
2017,06,27,08,51,13.70
2017,06,27,08,52,13.70
2017,06,27,08,53,13.80
2017,06,27,08,54,13.80
2017,06,27,08,55,13.80
2017,06,27,08,56,13.90
2017,06,27,08,57,13.90
2017,06,27,08,58,13.90
2017,06,27,08,59,13.90
2017,06,27,09,00,14.00
2017,06,27,09,01,14.00
2017,06,27,09,02,14.00
2017,06,27,09,03,14.10
2017,06,27,09,04,14.10
2017,06,27,09,05,14.10
2017,06,27,09,06,14.10
2017,06,27,09,07,14.20
2017,06,27,09,08,14.20
2017,06,27,09,09,14.30
2017,06,27,09,10,14.30
2017,06,27,09,11,14.40
2017,06,27,09,12,14.40
2017,06,27,09,13,14.50
2017,06,27,09,14,14.50
2017,06,27,09,15,14.60
2017,06,27,09,16,14.60
2017,06,27,09,17,14.70
2017,06,27,09,18,14.70
2017,06,27,09,19,14.70
2017,06,27,09,20,14.80
2017,06,27,09,21,14.80
2017,06,27,09,22,14.90
2017,06,27,09,23,15.00
2017,06,27,09,24,15.00
2017,06,27,09,25,15.00
2017,06,27,09,26,15.00
2017,06,27,09,27,15.00
2017,06,27,09,28,15.00
2017,06,27,09,29,15.10
2017,06,27,09,30,15.20
2017,06,27,09,31,15.30
2017,06,27,09,32,15.40
2017,06,27,09,33,15.50
2017,06,27,09,34,15.60
2017,06,27,09,35,15.80
2017,06,27,09,36,15.80
2017,06,27,09,37,15.90
2017,06,27,09,38,16.00
2017,06,27,09,39,16.10
2017,06,27,09,40,16.20
2017,06,27,09,41,16.30
2017,06,27,09,42,16.40
2017,06,27,09,43,16.50
2017,06,27,09,44,16.60
2017,06,27,09,45,16.70
2017,06,27,09,46,16.80
2017,06,27,09,47,16.90
2017,06,27,09,48,17.00
2017,06,27,09,49,17.10
2017,06,27,09,50,17.20
2017,06,27,09,51,17.30
2017,06,27,09,52,17.40
2017,06,27,09,53,17.50
2017,06,27,09,54,17.60
2017,06,27,09,55,17.70
2017,06,27,09,56,17.80
2017,06,27,09,57,18.00
2017,06,27,09,58,18.10
2017,06,27,09,59,18.20
2017,06,27,10,00,18.30
2017,06,27,10,01,18.40
2017,06,27,10,02,18.50
2017,06,27,10,03,18.50
2017,06,27,10,04,18.50
2017,06,27,10,05,18.50
2017,06,27,10,06,18.60
2017,06,27,10,07,18.60
2017,06,27,10,08,18.50
2017,06,27,10,09,18.50
2017,06,27,10,10,18.50
2017,06,27,10,11,18.40
2017,06,27,10,12,18.40
2017,06,27,10,13,18.30
2017,06,27,10,14,18.30
2017,06,27,10,15,18.30
2017,06,27,10,16,18.30
2017,06,27,10,17,18.30
2017,06,27,10,18,18.30
2017,06,27,10,19,18.30
2017,06,27,10,20,18.30
2017,06,27,10,21,18.30
2017,06,27,10,22,18.30
2017,06,27,10,23,18.30
2017,06,27,10,24,18.30
2017,06,27,10,25,18.30
2017,06,27,10,26,18.20
2017,06,27,10,27,18.20
2017,06,27,10,28,18.20
2017,06,27,10,29,18.20
2017,06,27,10,30,18.20
2017,06,27,10,31,18.20
2017,06,27,10,32,18.20
2017,06,27,10,33,18.10
2017,06,27,10,34,18.10
2017,06,27,10,35,18.10
2017,06,27,10,36,18.10
2017,06,27,10,37,18.20
2017,06,27,10,38,18.20
2017,06,27,10,39,18.20
2017,06,27,10,40,18.20
2017,06,27,10,41,18.20
2017,06,27,10,42,18.20
2017,06,27,10,43,18.20
2017,06,27,10,44,18.30
2017,06,27,10,45,18.30
2017,06,27,10,46,18.40
2017,06,27,10,47,18.40
2017,06,27,10,48,18.50
2017,06,27,10,49,18.50
2017,06,27,10,50,18.60
2017,06,27,10,51,18.70
2017,06,27,10,52,18.70
2017,06,27,10,53,18.80
2017,06,27,10,54,18.90
2017,06,27,10,55,18.90
2017,06,27,10,56,19.00
2017,06,27,10,57,19.10
2017,06,27,10,58,19.10
2017,06,27,10,59,19.20
2017,06,27,11,00,19.30
2017,06,27,11,01,19.30
2017,06,27,11,02,19.30
2017,06,27,11,03,19.40
2017,06,27,11,04,19.40
2017,06,27,11,05,19.50
2017,06,27,11,06,19.60
2017,06,27,11,07,19.70
2017,06,27,11,08,19.70
2017,06,27,11,09,19.80
2017,06,27,11,10,19.80
2017,06,27,11,11,19.90
2017,06,27,11,12,19.90
2017,06,27,11,13,19.90
2017,06,27,11,14,20.00
2017,06,27,11,15,20.00
2017,06,27,11,16,20.00
2017,06,27,11,17,20.00
2017,06,27,11,18,20.10
2017,06,27,11,19,20.10
2017,06,27,11,20,20.10
2017,06,27,11,21,20.20
2017,06,27,11,22,20.20
2017,06,27,11,23,20.30
2017,06,27,11,24,20.30
2017,06,27,11,25,20.30
2017,06,27,11,26,20.40
2017,06,27,11,27,20.40
2017,06,27,11,28,20.40
2017,06,27,11,29,20.40
2017,06,27,11,30,20.40
2017,06,27,11,31,20.40
2017,06,27,11,32,20.40
2017,06,27,11,33,20.40
2017,06,27,11,34,20.40
2017,06,27,11,35,20.40
2017,06,27,11,36,20.40
2017,06,27,11,37,20.40
2017,06,27,11,38,20.40
2017,06,27,11,39,20.40
2017,06,27,11,40,20.40
2017,06,27,11,41,20.50
2017,06,27,11,42,20.50
2017,06,27,11,43,20.50
2017,06,27,11,44,20.60
2017,06,27,11,45,20.60
2017,06,27,11,46,20.70
2017,06,27,11,47,20.70
2017,06,27,11,48,20.70
2017,06,27,11,49,20.70
2017,06,27,11,50,20.70
2017,06,27,11,51,20.70
2017,06,27,11,52,20.70
2017,06,27,11,53,20.70
2017,06,27,11,54,20.70
2017,06,27,11,55,20.70
2017,06,27,11,56,20.70
2017,06,27,11,57,20.70
2017,06,27,11,58,20.70
2017,06,27,11,59,20.70
2017,06,27,12,00,20.70
2017,06,27,12,01,20.60
2017,06,27,12,02,20.60
2017,06,27,12,03,20.50
2017,06,27,12,04,20.50
2017,06,27,12,05,20.60
2017,06,27,12,06,20.60
2017,06,27,12,07,20.70
2017,06,27,12,08,20.70
2017,06,27,12,09,20.70
2017,06,27,12,10,20.80
2017,06,27,12,11,20.70
2017,06,27,12,12,20.70
2017,06,27,12,13,20.70
2017,06,27,12,14,20.70
2017,06,27,12,15,20.70
2017,06,27,12,16,20.70
2017,06,27,12,17,20.70
2017,06,27,12,18,20.70
2017,06,27,12,19,20.70
2017,06,27,12,20,20.70
2017,06,27,12,21,20.70
2017,06,27,12,22,20.70
2017,06,27,12,23,20.70
2017,06,27,12,24,20.70
2017,06,27,12,25,20.70
2017,06,27,12,26,20.70
2017,06,27,12,27,20.70
2017,06,27,12,28,20.70
2017,06,27,12,29,20.70
2017,06,27,12,30,20.60
2017,06,27,12,31,20.50
2017,06,27,12,32,20.50
2017,06,27,12,33,20.50
2017,06,27,12,34,20.50
2017,06,27,12,35,20.60
2017,06,27,12,36,20.60
2017,06,27,12,37,20.60
2017,06,27,12,38,20.70
2017,06,27,12,39,20.70
2017,06,27,12,40,20.70
2017,06,27,12,41,20.80
2017,06,27,12,42,20.80
2017,06,27,12,43,20.90
2017,06,27,12,44,21.00
2017,06,27,12,45,21.00
2017,06,27,12,46,21.10
2017,06,27,12,47,21.10
2017,06,27,12,48,21.20
2017,06,27,12,49,21.20
2017,06,27,12,50,21.20
2017,06,27,12,51,21.20
2017,06,27,12,52,21.10
2017,06,27,12,53,21.10
2017,06,27,12,54,21.10
2017,06,27,12,55,21.00
2017,06,27,12,56,21.00
2017,06,27,12,57,20.90
2017,06,27,12,58,20.90
2017,06,27,12,59,20.90
2017,06,27,13,00,20.90
2017,06,27,13,01,20.80
2017,06,27,13,02,20.80
2017,06,27,13,03,20.80
2017,06,27,13,04,20.80
2017,06,27,13,05,20.80
2017,06,27,13,06,20.80
2017,06,27,13,07,20.80
2017,06,27,13,08,20.70
2017,06,27,13,09,20.70
2017,06,27,13,10,20.70
2017,06,27,13,11,20.70
2017,06,27,13,12,20.70
2017,06,27,13,13,20.70
2017,06,27,13,14,20.60
2017,06,27,13,15,20.60
2017,06,27,13,16,20.60
2017,06,27,13,17,20.60
2017,06,27,13,18,20.50
2017,06,27,13,19,20.50
2017,06,27,13,20,20.50
2017,06,27,13,21,20.60
2017,06,27,13,22,20.60
2017,06,27,13,23,20.60
2017,06,27,13,24,20.60
2017,06,27,13,25,20.50
2017,06,27,13,26,20.50
2017,06,27,13,27,20.60
2017,06,27,13,28,20.60
2017,06,27,13,29,20.50
2017,06,27,13,30,20.50
2017,06,27,13,31,20.50
2017,06,27,13,32,20.60
2017,06,27,13,33,20.60
2017,06,27,13,34,20.70
2017,06,27,13,35,20.70
2017,06,27,13,36,20.70
2017,06,27,13,37,20.70
2017,06,27,13,38,20.70
2017,06,27,13,39,20.70
2017,06,27,13,40,20.70
2017,06,27,13,41,20.70
2017,06,27,13,42,20.70
2017,06,27,13,43,20.70
2017,06,27,13,44,20.70
2017,06,27,13,45,20.70
2017,06,27,13,46,20.70
2017,06,27,13,47,20.80
2017,06,27,13,48,20.80
2017,06,27,13,49,20.80
2017,06,27,13,50,20.90
2017,06,27,13,51,21.00
2017,06,27,13,52,21.00
2017,06,27,13,53,21.10
2017,06,27,13,54,21.10
2017,06,27,13,55,21.20
2017,06,27,13,56,21.20
2017,06,27,13,57,21.20
2017,06,27,13,58,21.30
2017,06,27,13,59,21.30
2017,06,27,14,00,21.40
2017,06,27,14,01,21.40
2017,06,27,14,02,21.40
2017,06,27,14,03,21.40
2017,06,27,14,04,21.40
2017,06,27,14,05,21.50
2017,06,27,14,06,21.50
2017,06,27,14,07,21.50
2017,06,27,14,08,21.60
2017,06,27,14,09,21.60
2017,06,27,14,10,21.70
2017,06,27,14,11,21.80
2017,06,27,14,12,21.80
2017,06,27,14,13,21.80
2017,06,27,14,14,21.80
2017,06,27,14,15,21.90
2017,06,27,14,16,21.90
2017,06,27,14,17,22.00
2017,06,27,14,18,22.00
2017,06,27,14,19,22.10
2017,06,27,14,20,22.20
2017,06,27,14,21,22.20
2017,06,27,14,22,22.30
2017,06,27,14,23,22.40
2017,06,27,14,24,22.40
2017,06,27,14,25,22.40
2017,06,27,14,26,22.50
2017,06,27,14,27,22.50
2017,06,27,14,28,22.40
2017,06,27,14,29,22.40
2017,06,27,14,30,22.40
2017,06,27,14,31,22.40
2017,06,27,14,32,22.50
2017,06,27,14,33,22.50
2017,06,27,14,34,22.50
2017,06,27,14,35,22.50
2017,06,27,14,36,22.50
2017,06,27,14,37,22.50
2017,06,27,14,38,22.60
2017,06,27,14,39,22.60
2017,06,27,14,40,22.70
2017,06,27,14,41,22.70
2017,06,27,14,42,22.70
2017,06,27,14,43,22.70
2017,06,27,14,44,22.80
2017,06,27,14,45,22.80
2017,06,27,14,46,22.80
2017,06,27,14,47,22.90
2017,06,27,14,48,22.90
2017,06,27,14,49,23.00
2017,06,27,14,50,23.00
2017,06,27,14,51,23.10
2017,06,27,14,52,23.10
2017,06,27,14,53,23.20
2017,06,27,14,54,23.20
2017,06,27,14,55,23.20
2017,06,27,14,56,23.20
2017,06,27,14,57,23.20
2017,06,27,14,58,23.20
2017,06,27,14,59,23.20
2017,06,27,15,00,23.20
2017,06,27,15,01,23.30
2017,06,27,15,02,23.30
2017,06,27,15,03,23.30
2017,06,27,15,04,23.30
2017,06,27,15,05,23.40
2017,06,27,15,06,23.40
2017,06,27,15,07,23.40
2017,06,27,15,08,23.40
2017,06,27,15,09,23.50
2017,06,27,15,10,23.50
2017,06,27,15,11,23.40
2017,06,27,15,12,23.40
2017,06,27,15,13,23.30
2017,06,27,15,14,23.30
2017,06,27,15,15,23.30
2017,06,27,15,16,23.30
2017,06,27,15,17,23.30
2017,06,27,15,18,23.30
2017,06,27,15,19,23.30
2017,06,27,15,20,23.30
2017,06,27,15,21,23.30
2017,06,27,15,22,23.30
2017,06,27,15,23,23.40
2017,06,27,15,24,23.40
2017,06,27,15,25,23.50
2017,06,27,15,26,23.50
2017,06,27,15,27,23.60
2017,06,27,15,28,23.60
2017,06,27,15,29,23.60
2017,06,27,15,30,23.60
2017,06,27,15,31,23.60
2017,06,27,15,32,23.60
2017,06,27,15,33,23.60
2017,06,27,15,34,23.60
2017,06,27,15,35,23.50
2017,06,27,15,36,23.50
2017,06,27,15,37,23.50
2017,06,27,15,38,23.50
2017,06,27,15,39,23.50
2017,06,27,15,40,23.50
2017,06,27,15,41,23.50
2017,06,27,15,42,23.50
2017,06,27,15,43,23.60
2017,06,27,15,44,23.60
2017,06,27,15,45,23.60
2017,06,27,15,46,23.70
2017,06,27,15,47,23.70
2017,06,27,15,48,23.80
2017,06,27,15,49,23.80
2017,06,27,15,50,23.80
2017,06,27,15,51,23.80
2017,06,27,15,52,23.80
2017,06,27,15,53,23.80
2017,06,27,15,54,23.70
2017,06,27,15,55,23.70
2017,06,27,15,56,23.80
2017,06,27,15,57,23.80
2017,06,27,15,58,23.90
2017,06,27,15,59,23.90
2017,06,27,16,00,24.00
2017,06,27,16,01,24.00
2017,06,27,16,02,24.10
2017,06,27,16,03,24.10
2017,06,27,16,04,24.20
2017,06,27,16,05,24.20
2017,06,27,16,06,24.20
2017,06,27,16,07,24.20
2017,06,27,16,08,24.20
2017,06,27,16,09,24.30
2017,06,27,16,10,24.30
2017,06,27,16,11,24.30
2017,06,27,16,12,24.20
2017,06,27,16,13,24.10
2017,06,27,16,14,24.10
2017,06,27,16,15,24.00
2017,06,27,16,16,24.00
2017,06,27,16,17,23.90
2017,06,27,16,18,23.80
2017,06,27,16,19,23.80
2017,06,27,16,20,23.70
2017,06,27,16,21,23.70
2017,06,27,16,22,23.70
2017,06,27,16,23,23.70
2017,06,27,16,24,23.70
2017,06,27,16,25,23.70
2017,06,27,16,26,23.70
2017,06,27,16,27,23.60
2017,06,27,16,28,23.50
2017,06,27,16,29,23.40
2017,06,27,16,30,23.40
2017,06,27,16,31,23.30
2017,06,27,16,32,23.30
2017,06,27,16,33,23.40
2017,06,27,16,34,23.40
2017,06,27,16,35,23.40
2017,06,27,16,36,23.40
2017,06,27,16,37,23.40
2017,06,27,16,38,23.40
2017,06,27,16,39,23.30
2017,06,27,16,40,23.30
2017,06,27,16,41,23.20
2017,06,27,16,42,23.20
2017,06,27,16,43,23.20
2017,06,27,16,44,23.10
2017,06,27,16,45,23.10
2017,06,27,16,46,23.10
2017,06,27,16,47,23.10
2017,06,27,16,48,23.10
2017,06,27,16,49,23.00
2017,06,27,16,50,23.00
2017,06,27,16,51,23.00
2017,06,27,16,52,22.90
2017,06,27,16,53,22.90
2017,06,27,16,54,22.90
2017,06,27,16,55,22.90
2017,06,27,16,56,22.80
2017,06,27,16,57,22.90
2017,06,27,16,58,22.90
2017,06,27,16,59,22.90
2017,06,27,17,00,22.90
2017,06,27,17,01,22.90
2017,06,27,17,02,22.90
2017,06,27,17,03,23.00
2017,06,27,17,04,23.10
2017,06,27,17,05,23.10
2017,06,27,17,06,23.10
2017,06,27,17,07,23.00
2017,06,27,17,08,22.90
2017,06,27,17,09,22.90
2017,06,27,17,10,22.80
2017,06,27,17,11,22.80
2017,06,27,17,12,22.80
2017,06,27,17,13,22.80
2017,06,27,17,14,22.90
2017,06,27,17,15,22.90
2017,06,27,17,16,22.90
2017,06,27,17,17,22.90
2017,06,27,17,18,22.90
2017,06,27,17,19,23.00